Theta_e
353 353 354 354 353 353 353 354 354 354 353 353 353 354 354 353 350 349 351 351 350 350 351 351 349 349 348 347 349 350 348 344 339 339 339 339 339 339 339 339 339 339 341 341 342 342 343 344 345 346 345 344 343 343 341 341 340 339 339 339 338 338 337 338 338 339 341 342 343 344 344 344 344 345 344 344 344 344 345 343 344 342 332 321 316
352 352 352 352 350 351 351 351 351 352 353 353 353 353 353 351 349 348 349 349 347 348 349 350 349 348 349 348 348 348 348 346 342 340 340 340 340 340 340 339 340 340 340 341 341 341 340 341 342 343 345 345 344 343 341 341 340 341 341 341 340 340 340 339 340 342 344 344 344 344 344 344 344 344 344 344 344 345 343 342 343 336 320 314 315
351 350 350 350 349 349 350 350 351 351 351 351 351 352 353 351 350 347 347 347 346 348 348 348 348 349 349 349 349 347 348 348 345 342 340 340 340 341 340 340 340 340 340 340 340 340 338 338 339 339 341 342 342 340 339 339 340 342 341 341 342 343 342 342 343 344 345 345 345 345 344 344 344 344 344 344 344 343 342 343 340 326 314 315 315
351 351 350 350 350 350 352 352 351 351 351 350 351 352 353 351 350 348 347 347 347 348 349 348 348 348 349 349 349 348 348 348 347 346 343 341 341 341 341 342 341 340 341 340 339 339 339 338 338 338 338 340 339 338 338 338 340 342 341 342 345 345 344 344 344 344 344 345 344 345 344 344 344 344 345 344 344 342 342 342 334 318 313 316 316
352 351 351 350 351 353 354 354 352 351 350 351 351 353 354 353 352 351 348 348 348 347 349 348 348 348 349 348 349 349 349 348 349 349 347 343 341 341 341 342 343 342 342 342 341 341 341 341 341 340 340 342 341 340 339 339 341 342 342 344 345 344 344 344 344 344 344 344 345 345 345 345 344 344 345 344 343 341 341 336 323 313 315 316 316
353 353 352 352 353 355 354 353 352 352 352 352 352 353 355 355 355 354 351 348 348 347 348 349 348 348 348 348 348 349 349 348 349 350 348 345 342 342 341 341 342 343 343 342 342 343 343 343 343 342 342 343 342 342 342 342 342 342 342 344 345 343 344 346 345 345 345 345 346 346 345 345 345 345 345 344 342 341 339 328 316 314 316 316 317
354 353 354 353 353 353 353 353 352 352 353 352 351 351 354 354 355 355 352 349 348 347 348 347 348 348 347 348 347 347 348 349 349 350 349 347 346 345 344 342 341 342 342 342 343 343 343 343 343 343 343 343 343 343 344 343 343 344 344 344 345 344 344 346 346 346 346 346 346 345 345 345 345 345 344 343 341 339 336 324 313 315 316 316 316
353 353 353 352 351 351 351 353 353 352 352 351 350 352 353 352 354 355 352 350 350 349 348 348 347 346 346 348 347 347 348 348 348 349 349 349 349 348 347 345 343 341 342 342 342 343 343 343 343 343 343 343 343 343 344 344 344 344 345 345 345 344 344 346 347 347 346 346 346 345 346 346 345 344 343 343 340 333 329 321 314 315 316 315 316
354 353 352 352 352 350 351 352 352 351 353 351 351 353 354 353 354 354 354 352 350 350 348 347 347 345 346 347 347 348 348 348 349 349 350 349 350 349 349 349 347 345 344 344 343 342 342 343 343 343 343 343 343 343 344 344 343 344 345 345 345 344 344 345 347 347 346 346 346 346 346 346 345 344 342 342 337 326 321 318 315 316 316 315 316
354 354 352 352 353 352 351 353 352 352 353 351 352 353 353 355 355 354 354 352 350 350 349 348 347 346 346 347 347 348 347 347 348 349 350 350 351 350 349 349 348 348 348 348 347 343 343 342 342 342 343 343 343 343 343 343 343 343 343 344 344 344 344 345 346 346 346 347 347 347 346 346 345 344 343 339 331 323 318 316 316 316 316 316 316
357 355 352 352 353 353 354 354 353 353 353 352 353 353 353 355 354 353 353 353 351 351 350 350 349 347 347 347 347 347 346 347 347 348 350 349 350 349 349 349 349 349 350 350 350 348 347 345 344 343 341 341 342 342 342 342 342 343 342 342 343 343 343 345 347 347 347 347 347 347 346 346 345 344 344 338 328 321 318 316 316 316 316 316 316
360 356 353 353 354 354 355 355 353 353 354 352 353 352 353 353 354 355 355 353 352 351 351 351 350 347 347 348 348 347 346 346 347 348 349 349 349 349 350 349 349 349 349 349 350 349 348 348 348 347 345 344 344 343 342 342 342 342 342 342 343 344 345 347 348 348 348 348 347 346 346 345 345 344 343 338 327 320 318 316 317 317 317 317 317
359 358 355 354 355 355 356 356 354 355 354 353 353 352 353 353 353 356 357 355 353 352 351 351 350 349 348 349 347 347 347 346 346 348 348 348 347 348 349 349 349 348 348 348 348 348 347 347 347 347 347 347 348 346 345 344 343 343 342 342 342 343 346 347 348 347 347 348 347 346 346 345 345 344 343 340 329 318 318 318 316 317 317 318 317
355 358 358 356 357 356 356 357 356 356 355 354 354 353 354 353 351 353 356 355 354 353 352 351 351 349 347 348 349 347 346 346 346 347 347 348 347 347 348 347 347 347 348 347 346 348 347 346 346 346 347 346 346 347 347 346 346 345 344 343 343 343 345 347 347 347 348 348 347 346 346 345 344 344 343 340 329 317 318 319 317 317 317 318 318
352 357 359 358 358 357 356 358 357 357 357 355 354 354 355 355 351 351 353 354 354 353 352 350 352 349 347 352 352 350 350 347 347 347 347 348 346 346 346 346 347 346 346 346 346 347 347 346 345 347 347 344 343 345 347 346 345 345 344 344 343 342 344 346 347 347 347 347 346 345 345 344 343 344 343 338 329 319 319 318 318 318 317 318 319
353 356 358 357 358 357 355 356 358 357 358 357 356 355 355 355 353 352 353 356 356 353 350 350 352 350 350 357 354 354 360 354 346 346 346 347 347 346 347 346 345 346 345 345 345 345 346 346 345 345 343 341 341 343 345 345 345 346 345 344 344 341 339 341 345 347 347 347 346 343 343 342 341 341 340 334 326 320 319 319 319 318 318 319 318
354 356 357 357 356 357 355 355 357 357 357 356 357 354 354 355 353 352 354 355 355 353 352 351 352 350 352 359 357 358 365 356 345 346 345 346 347 344 345 345 344 346 344 343 344 343 344 345 343 343 340 339 341 342 342 344 346 348 346 344 343 342 339 337 341 344 344 344 344 342 341 339 335 335 334 328 322 319 319 319 319 319 319 318 319
356 356 357 356 356 357 356 356 356 356 354 354 355 356 355 355 354 353 355 355 355 355 353 352 353 351 350 353 353 354 357 353 351 354 346 342 345 345 345 344 344 345 343 343 344 343 343 343 342 342 341 340 340 341 341 343 346 347 346 343 340 340 339 336 334 336 337 337 338 339 337 334 329 327 327 323 320 319 319 319 319 319 319 318 319
357 357 357 357 356 357 357 358 357 356 358 357 357 358 356 355 355 355 355 355 355 355 355 355 355 353 349 349 349 346 347 348 353 359 353 346 342 342 345 344 343 344 342 342 344 342 342 341 341 343 344 342 341 342 342 343 345 347 346 346 343 339 334 330 329 330 331 330 329 330 331 330 325 322 321 319 319 319 319 319 319 318 319 318 319
358 357 357 356 355 356 357 358 358 357 359 360 359 358 356 355 355 356 357 356 355 357 358 356 356 354 351 350 350 347 344 343 345 349 356 359 353 345 342 342 342 343 343 342 342 341 340 342 342 343 345 345 344 345 346 345 346 347 347 348 347 338 328 325 324 325 326 327 325 324 325 325 322 319 318 318 319 319 319 319 319 318 319 318 319
357 356 356 356 355 356 357 357 358 358 358 358 358 357 355 353 356 357 358 357 355 358 357 355 355 354 352 349 349 347 344 344 342 340 349 361 363 353 343 340 341 342 343 342 341 341 340 342 343 344 345 346 346 347 347 347 347 347 347 348 347 341 335 331 326 322 323 322 321 320 320 321 319 318 318 317 319 319 319 320 319 319 318 318 318
355 356 356 356 356 356 357 356 357 358 358 357 356 355 354 353 356 358 358 358 357 357 358 357 356 354 352 350 349 349 347 346 346 343 344 348 353 352 344 343 344 341 341 341 340 341 342 343 343 344 345 345 346 346 346 348 347 347 347 347 347 345 344 340 333 327 325 322 320 318 318 318 318 318 318 318 319 319 320 320 319 320 319 319 319
354 356 355 355 356 357 357 356 356 357 358 357 355 355 353 353 355 356 357 361 361 359 359 358 357 356 355 351 348 348 348 347 346 347 346 346 351 353 346 345 346 340 340 342 340 341 342 342 342 343 343 343 344 345 346 347 347 347 347 347 347 346 346 343 337 333 329 326 323 321 319 319 318 318 317 318 318 319 319 319 320 320 320 320 320
353 356 356 355 356 356 357 358 357 358 358 356 354 356 355 353 353 354 356 360 360 361 361 360 359 357 356 355 350 349 348 346 345 345 344 345 349 350 345 345 347 343 340 341 341 341 341 341 342 342 341 341 342 343 345 347 348 347 347 347 346 345 345 344 342 338 333 330 328 326 324 322 322 321 319 319 319 319 319 319 320 320 320 320 320
351 354 356 356 356 357 358 359 359 358 358 356 353 354 354 354 355 353 355 357 357 359 360 361 360 357 356 355 354 353 352 348 346 345 344 343 344 345 343 343 346 346 344 343 343 342 341 340 341 342 343 341 341 343 344 346 346 347 346 346 345 345 345 345 345 343 339 334 331 329 328 327 326 325 324 324 323 322 321 320 320 320 320 320 320
351 352 354 355 356 357 357 357 358 358 357 355 354 354 354 355 355 354 355 355 356 357 357 359 360 358 357 357 357 356 355 352 347 344 345 344 345 345 344 346 347 346 345 346 344 343 341 341 340 340 342 342 342 343 344 344 345 345 345 344 344 345 346 346 346 344 341 337 335 332 330 329 329 328 328 328 327 327 326 324 323 321 320 320 320
353 352 352 353 355 356 355 354 357 358 357 356 356 355 354 355 356 355 356 356 356 357 357 358 359 359 359 358 358 357 357 356 350 345 344 343 345 345 346 352 355 350 348 349 347 346 344 344 342 340 339 341 342 342 342 343 344 344 344 344 344 345 346 346 345 342 339 337 335 334 332 332 331 330 330 330 330 331 330 329 329 327 325 323 321
352 352 352 351 352 354 354 352 354 356 357 357 357 357 356 354 355 356 357 357 357 357 357 357 358 358 358 357 358 358 357 356 355 352 349 346 348 348 347 351 355 358 362 362 355 348 347 348 346 343 340 340 342 342 341 340 340 341 341 340 340 340 340 341 340 338 336 335 334 334 334 334 334 334 334 333 333 333 332 333 332 331 331 329 327
345 349 352 353 353 353 353 353 353 354 356 357 357 358 357 356 354 354 356 356 357 358 357 357 356 357 357 357 358 357 355 355 356 356 353 352 351 350 350 348 351 360 367 369 364 353 347 346 345 345 343 339 341 344 343 342 341 340 340 339 338 339 339 340 339 338 338 337 338 337 338 338 339 339 339 340 340 340 339 339 337 337 336 335 334
340 342 347 350 353 354 353 354 353 353 355 356 357 357 358 358 356 353 353 353 356 358 357 356 357 356 357 357 357 357 356 355 355 355 353 352 352 351 352 349 349 353 356 362 366 355 344 345 345 347 346 342 344 346 345 346 344 343 343 343 343 345 345 345 344 344 343 344 344 344 344 344 344 344 344 345 345 345 345 345 344 344 343 342 340
343 341 342 344 348 352 354 353 353 354 355 356 358 358 358 360 358 355 355 354 356 358 357 355 356 357 357 356 356 357 358 357 356 357 356 355 355 353 354 352 351 352 349 353 360 353 344 345 345 344 344 343 345 348 348 349 348 347 347 346 347 347 348 349 348 348 348 348 348 348 349 349 348 348 349 349 349 350 349 349 349 349 348 347 346
347 346 345 343 343 348 352 354 353 354 354 356 358 359 358 359 359 357 357 357 357 357 357 356 356 358 357 357 356 355 357 357 357 358 357 357 357 356 355 355 355 355 351 351 355 352 347 346 344 340 340 343 346 347 350 350 349 350 351 349 350 349 349 350 350 350 350 350 351 351 352 352 352 352 353 353 354 353 353 353 352 352 351 350 350
347 349 349 347 345 346 350 353 354 354 355 356 357 359 359 359 359 357 357 358 358 356 356 356 357 358 358 357 355 354 355 356 356 357 357 357 357 357 356 357 357 356 356 353 354 353 351 350 350 347 344 346 347 347 350 352 352 353 353 353 353 352 352 352 352 353 353 353 353 354 354 354 354 355 355 355 355 355 355 355 354 354 354 353 352
347 348 350 350 349 348 349 352 354 354 355 356 357 357 358 359 359 358 358 359 358 357 356 355 355 357 359 358 356 355 355 356 356 357 357 357 357 357 357 357 357 357 357 357 355 354 355 355 356 354 351 353 352 350 352 353 353 353 353 354 353 353 353 353 353 354 354 354 355 354 356 356 356 356 357 356 357 356 357 357 356 356 355 355 355
348 347 347 349 351 350 350 351 353 354 357 357 356 355 357 358 359 357 357 358 358 358 357 356 354 356 357 358 357 356 356 357 357 358 358 358 357 357 357 357 357 357 357 358 357 357 357 357 358 358 356 357 357 356 354 354 353 353 353 352 352 352 353 353 353 354 355 356 356 356 358 358 357 358 357 357 357 357 357 357 357 357 357 356 357
351 349 346 346 351 353 352 352 353 353 356 356 356 355 355 357 358 358 357 356 356 358 358 357 356 355 355 355 356 356 356 356 357 358 358 358 357 357 357 357 357 358 357 358 358 358 358 358 358 359 359 359 359 358 357 357 356 357 357 357 357 358 357 357 356 357 357 359 359 359 359 359 358 358 358 358 358 357 358 358 358 358 358 358 357
352 352 349 346 350 354 354 354 353 353 354 355 355 356 355 356 358 357 357 356 355 356 357 357 357 356 356 354 353 354 356 357 357 358 359 358 357 356 356 356 357 357 358 358 358 358 359 360 360 359 358 358 357 357 358 358 359 360 361 361 361 360 360 360 359 360 360 360 360 359 359 358 359 358 358 358 359 359 359 358 358 357 356 356 356
352 353 352 348 349 352 355 355 355 354 354 354 355 355 355 356 357 357 357 356 356 355 356 356 357 357 358 357 354 354 357 357 357 358 359 358 357 355 356 357 356 357 356 356 357 357 357 358 357 358 357 358 358 358 359 360 362 363 363 362 361 361 361 361 360 361 361 360 359 358 359 359 359 360 360 360 360 358 357 356 355 354 355 356 356
353 352 353 351 349 350 353 355 356 356 356 355 354 355 356 356 357 358 358 357 357 356 356 356 355 356 357 358 358 358 358 359 358 358 358 358 356 356 356 357 358 358 357 357 357 358 358 358 358 358 358 359 360 360 362 362 363 363 363 363 362 360 360 362 363 362 361 359 358 357 358 359 359 361 361 360 359 356 354 355 355 356 357 354 350
353 353 352 353 352 350 351 353 355 357 357 357 356 355 356 356 357 357 358 358 358 357 357 357 357 357 356 357 359 359 359 360 359 358 357 357 357 357 356 357 357 358 358 358 358 358 358 359 360 359 360 361 362 363 363 363 364 362 361 362 362 362 363 363 362 362 359 358 358 357 358 361 361 360 359 358 356 353 355 356 357 355 352 347 343
354 352 352 353 354 352 352 353 354 357 359 359 358 356 355 355 356 357 358 358 359 358 357 358 359 358 358 358 358 359 358 359 359 359 357 357 357 357 356 357 357 357 357 357 359 359 360 360 361 361 362 363 364 364 362 363 362 360 359 362 363 364 363 362 361 358 357 357 359 360 361 361 359 357 357 356 353 352 356 356 352 349 345 342 342
354 353 353 353 354 354 354 355 355 357 358 359 358 357 355 355 355 356 358 358 358 359 359 359 359 359 358 358 358 358 359 359 358 357 356 356 356 355 355 355 356 357 357 357 358 359 361 362 362 363 364 364 364 363 363 362 361 360 361 363 364 363 361 360 358 355 355 358 362 362 360 358 356 356 357 354 351 353 354 351 346 343 341 341 340
354 354 353 354 355 355 356 356 356 357 357 357 358 358 357 356 356 356 357 358 358 358 359 359 359 358 358 358 357 358 359 360 359 358 356 355 354 353 353 353 353 355 357 357 358 360 362 363 364 364 364 364 363 363 362 362 362 363 363 363 362 361 360 359 360 358 357 360 361 360 358 356 356 356 355 352 351 352 349 344 340 339 340 340 339
357 354 355 355 356 356 357 357 358 357 356 356 357 356 357 357 356 357 357 358 358 358 358 358 358 358 358 357 357 357 357 358 359 358 357 356 355 354 353 353 353 353 353 355 356 359 360 363 364 365 365 364 363 364 362 363 363 362 361 359 358 357 358 359 361 361 359 359 359 358 357 356 355 356 354 352 351 349 344 339 336 338 340 340 337
357 356 355 354 355 357 357 357 358 359 358 357 357 357 357 357 357 357 357 357 358 358 357 357 357 357 358 358 358 358 357 357 356 355 354 353 353 353 354 354 354 354 354 353 354 356 356 359 360 361 360 360 360 358 356 357 357 355 355 354 353 353 356 358 361 361 359 358 358 357 357 355 353 353 352 349 348 345 339 334 335 339 340 337 336
358 357 356 354 355 357 357 357 358 359 359 358 358 357 357 357 357 357 357 357 357 356 357 357 356 356 356 356 357 357 356 356 356 354 353 352 351 351 351 352 353 353 354 354 354 354 354 355 356 355 355 354 354 352 349 350 350 351 351 351 350 354 359 361 361 360 359 358 357 357 357 353 349 349 347 344 342 337 331 332 337 340 337 335 337
359 358 358 357 355 356 358 358 359 360 360 359 359 359 358 358 358 358 358 358 356 354 354 356 356 356 355 355 355 354 354 354 353 352 351 351 351 351 350 350 351 350 351 352 353 354 354 355 356 356 354 354 352 352 351 350 350 350 350 350 354 360 362 360 359 358 358 358 355 354 354 350 346 346 343 339 336 330 328 334 338 336 333 335 336
359 359 358 358 356 356 358 360 359 359 361 360 360 359 359 359 359 359 360 359 357 355 353 354 355 355 355 354 354 353 353 352 351 349 348 349 350 352 352 352 351 351 352 352 353 354 357 358 358 358 358 357 357 357 357 357 355 355 354 355 358 362 360 357 358 358 357 357 354 351 348 346 344 342 338 335 331 328 332 337 334 331 331 335 335
359 360 359 359 358 356 356 358 360 360 361 360 360 361 359 360 360 360 361 360 359 357 355 354 354 354 354 353 353 353 353 353 352 351 350 349 349 350 352 353 355 355 354 354 355 358 359 360 361 361 362 362 362 362 361 360 359 358 356 356 358 360 358 357 357 358 358 357 354 349 346 344 342 338 335 333 329 329 335 335 330 330 333 335 333
358 360 360 359 358 357 355 356 358 361 361 361 361 361 361 360 360 360 360 360 360 358 356 355 355 355 355 356 356 356 356 355 354 354 353 353 352 351 351 353 356 358 357 356 359 361 363 364 364 363 362 361 361 362 362 361 361 360 358 357 358 358 357 357 357 357 358 357 352 348 345 343 340 335 334 334 332 333 335 332 328 332 334 333 332
357 358 360 360 358 358 357 357 357 357 360 361 361 361 361 361 360 360 359 360 360 359 357 356 355 354 355 357 359 359 359 359 358 357 356 355 355 355 354 354 356 357 355 355 359 361 363 365 363 362 360 359 361 362 362 361 361 362 360 359 360 358 357 358 358 357 358 355 351 347 344 340 336 334 335 337 337 337 334 329 329 333 333 331 328
Wind_Speed
15 14 13 12 11 11 11 11 10 9 8 7 6 6 7 7 6 6 7 7 6 7 7 5 6 9 14 16 16 15 12 12 12 12 12 12 12 13 12 12 12 11 11 10 9 9 9 10 10 10 10 10 10 10 9 9 8 7 6 5 4 3 3 2 2 2 2 2 2 2 3 3 4 4 4 4 4 5 5 5 5 5 5 6 6
14 14 14 13 12 11 11 11 10 10 10 8 6 7 8 8 7 7 7 8 7 7 7 8 9 10 14 16 15 14 12 11 12 11 11 11 11 12 11 11 11 11 10 10 9 9 9 9 9 9 9 9 9 9 9 8 7 7 6 5 4 3 2 2 1 1 1 1 2 2 3 3 3 4 4 4 4 4 5 5 5 5 6 6 6
14 13 13 12 12 12 12 10 9 9 9 9 9 8 8 6 6 7 8 8 8 7 7 9 10 11 13 15 14 12 12 10 11 10 10 10 10 11 11 10 10 10 10 9 9 8 8 8 9 9 9 9 9 8 8 8 7 6 5 4 4 3 2 1 0 0 1 1 2 2 3 3 3 4 4 4 4 4 5 5 5 5 5 5 6
13 13 13 13 12 12 11 9 8 8 8 9 10 10 9 7 6 7 7 7 7 7 7 8 10 11 12 13 13 12 12 10 10 10 9 9 9 10 10 10 9 9 9 9 9 8 8 8 8 8 8 9 8 8 8 7 7 6 5 4 4 3 2 1 1 1 2 2 2 2 3 3 4 4 4 4 4 5 5 4 5 4 5 5 6
13 13 13 13 12 11 10 8 8 8 10 10 10 10 10 8 7 7 6 5 6 6 6 7 9 10 10 11 12 12 11 10 10 9 7 8 9 9 10 10 10 10 9 8 8 8 8 8 8 8 8 8 8 7 8 7 7 6 5 5 4 4 3 3 2 2 3 3 3 3 3 3 4 4 4 4 4 5 4 4 3 3 4 5 5
14 13 12 12 12 12 10 9 9 9 10 9 9 10 10 8 7 6 5 5 6 5 6 7 9 10 10 10 11 12 12 11 12 11 7 8 9 9 9 9 10 10 10 9 9 9 8 8 9 8 8 8 7 7 7 7 6 6 5 5 5 4 4 4 3 3 3 3 3 4 4 4 4 4 4 5 5 5 4 3 2 2 3 4 4
15 14 12 12 13 13 11 10 10 10 9 8 9 10 9 8 8 6 4 6 6 5 5 6 8 11 11 10 9 11 13 13 14 13 8 9 9 8 8 9 9 9 10 10 10 10 9 9 9 9 9 9 8 7 7 7 7 7 6 6 6 6 5 5 4 4 4 4 4 4 4 4 4 4 5 5 6 5 3 2 1 2 2 3 3
14 14 13 14 13 12 11 10 10 9 8 7 8 9 8 8 8 7 5 5 6 5 6 5 7 10 10 10 7 8 12 11 13 14 11 9 8 8 8 7 8 8 8 9 9 10 10 10 10 10 10 10 9 8 8 8 8 8 8 8 7 7 7 6 6 5 5 5 5 5 5 4 5 5 5 6 6 4 2 0 1 1 1 1 1
14 13 12 12 11 10 10 9 9 9 9 8 8 8 8 8 8 7 6 5 5 5 6 5 7 10 9 9 7 8 10 8 11 14 12 11 9 8 7 6 7 7 8 8 8 9 9 10 10 10 10 10 10 10 10 9 9 9 9 8 7 8 8 8 7 7 7 6 6 6 5 5 6 6 6 7 6 3 2 1 2 1 1 1 1
13 12 11 11 11 11 10 8 7 8 8 7 7 7 7 8 7 7 6 6 5 5 5 4 6 9 9 9 7 7 9 8 11 12 11 13 12 9 7 6 7 6 6 6 7 8 8 9 9 10 10 11 11 10 10 10 9 9 9 9 9 9 9 8 7 7 7 7 7 6 6 6 6 6 6 6 5 3 2 2 2 2 2 2 2
12 11 11 12 12 11 9 7 7 7 7 7 7 6 6 6 6 6 6 6 6 6 4 1 2 9 11 9 7 7 7 8 10 9 10 13 13 11 9 8 7 6 5 6 7 8 8 8 8 9 9 10 10 10 10 9 10 10 9 10 10 10 9 8 8 7 7 7 7 7 7 7 7 7 7 6 5 4 3 3 3 3 3 3 3
12 11 11 12 12 11 9 8 7 6 6 7 7 6 6 6 5 6 4 5 6 5 4 3 4 8 11 8 6 8 7 7 9 8 9 13 13 12 12 11 9 8 7 6 7 8 8 8 8 7 7 8 9 9 9 9 10 10 10 11 11 11 10 9 9 9 9 8 8 8 8 8 8 8 7 6 5 4 4 4 4 4 4 4 4
14 12 11 12 12 12 11 9 8 6 6 6 7 7 7 5 5 6 4 4 5 4 4 4 6 7 8 7 7 8 7 8 11 9 10 13 13 14 14 12 11 10 9 8 8 8 7 7 8 8 6 6 7 7 8 9 9 10 10 10 10 11 11 11 10 10 10 9 9 9 9 9 9 8 8 8 7 5 5 5 6 6 6 6 5
16 13 12 11 12 13 13 11 9 8 7 7 8 7 7 6 5 6 5 5 5 4 4 5 5 6 7 6 6 8 7 9 11 11 12 12 12 14 15 13 12 12 12 11 10 10 9 8 9 9 7 5 5 6 7 7 8 8 9 9 10 11 11 11 11 11 10 10 10 10 10 10 9 9 9 9 8 6 6 7 7 7 7 7 7
16 14 12 11 11 13 13 12 10 10 9 9 9 8 7 6 6 7 6 7 5 3 5 5 2 5 8 4 3 5 5 8 11 12 14 14 12 14 16 14 13 13 13 13 13 13 11 10 10 9 8 6 5 5 6 6 6 7 8 8 9 10 12 12 12 12 11 11 11 11 11 11 10 10 10 10 9 7 8 8 8 8 8 8 9
17 16 15 12 11 11 12 11 10 10 10 9 9 8 7 6 6 6 6 6 4 3 5 4 1 2 4 2 2 3 1 6 11 13 15 17 15 15 17 16 14 15 15 14 14 15 15 13 11 10 8 7 6 6 7 7 7 8 8 8 9 9 11 12 13 12 12 11 11 11 11 12 12 11 11 10 9 9 9 10 10 10 10 10 10
17 17 16 15 12 11 11 11 10 10 9 9 9 7 6 6 6 6 6 6 4 4 4 2 1 1 2 1 1 2 2 3 4 7 14 20 19 16 18 18 15 17 16 14 14 16 17 15 11 10 8 8 8 7 8 8 8 9 9 9 9 8 9 10 12 12 12 12 12 12 12 12 12 12 12 11 11 11 11 11 12 12 12 12 12
16 16 15 15 14 12 11 11 10 11 9 8 8 6 5 5 5 5 6 5 3 4 4 3 2 2 3 2 1 1 1 1 1 1 8 16 18 18 21 20 17 16 16 15 15 16 17 15 12 10 9 9 9 8 8 7 9 10 10 8 8 8 8 8 9 11 11 12 12 13 13 13 12 12 13 13 12 13 13 13 13 13 13 13 13
16 16 15 14 14 13 12 10 9 9 9 8 8 6 5 5 4 4 5 4 3 3 4 4 4 3 4 3 3 3 3 2 1 0 2 5 10 18 23 21 19 17 16 16 16 17 17 15 14 13 11 10 10 9 7 6 8 10 10 9 8 9 9 9 9 10 11 11 12 12 13 14 14 13 14 14 14 15 15 15 15 15 15 15 15
18 16 16 14 13 13 13 11 9 8 9 9 7 6 5 5 5 5 4 4 4 3 3 4 4 3 3 4 5 4 3 2 1 0 2 1 3 10 17 19 20 19 17 16 16 17 17 15 14 14 12 11 12 10 8 7 7 9 10 10 9 9 7 8 9 10 11 12 12 13 14 15 15 15 15 16 16 17 17 17 17 17 17 17 17
19 17 17 16 14 13 14 14 12 10 10 9 8 7 6 6 7 7 6 5 4 4 3 3 3 3 3 3 2 1 2 2 3 2 2 1 1 2 5 10 16 19 18 17 17 18 17 14 13 14 13 13 13 11 9 8 8 9 10 11 10 9 7 7 8 9 11 12 13 14 15 15 16 16 17 17 18 18 18 19 19 19 19 19 19
21 19 18 17 16 14 14 16 15 13 11 9 8 8 8 7 8 8 7 5 5 5 4 3 4 4 3 3 3 2 1 2 3 4 3 1 0 2 6 4 5 12 13 10 13 16 16 14 13 13 14 14 13 12 11 10 9 9 10 11 11 10 10 10 9 10 11 12 13 14 15 16 17 17 18 19 19 20 20 20 20 21 20 21 21
21 20 18 18 18 16 15 15 15 15 13 12 11 10 10 10 8 8 8 7 6 5 5 4 4 5 4 3 4 5 3 2 3 3 2 2 1 1 6 8 5 4 8 5 7 12 14 13 13 13 13 13 14 13 11 11 11 10 10 10 11 11 12 12 12 11 12 13 14 15 16 17 18 19 20 20 21 22 22 22 22 22 22 22 22
22 21 19 18 18 17 16 15 15 15 14 14 13 10 10 11 10 8 8 8 8 7 7 6 4 5 5 5 6 6 6 3 2 3 2 1 1 2 4 5 6 1 5 4 4 8 11 12 12 12 12 13 13 12 12 12 11 10 10 11 12 13 13 13 13 13 14 14 15 16 17 18 19 20 21 22 23 23 24 24 24 24 24 25 25
22 22 21 20 19 18 17 16 16 15 14 15 14 11 9 10 11 11 10 8 8 7 8 7 6 5 5 6 7 8 9 6 4 5 4 4 4 3 2 2 2 3 2 3 4 5 8 11 12 12 13 14 13 12 12 12 11 11 12 14 14 15 16 15 15 16 16 16 17 17 18 19 20 21 22 23 24 25 26 26 26 27 27 27 27
23 22 22 21 20 19 19 18 17 15 15 14 14 13 11 9 10 13 11 8 8 7 6 6 6 6 5 5 6 7 8 8 8 9 7 7 6 4 2 2 4 5 5 5 5 5 7 8 10 11 11 14 14 12 11 12 12 12 13 15 16 17 18 18 18 18 18 18 19 19 20 21 22 23 24 25 26 26 27 27 28 28 29 29 30
23 22 21 20 20 20 19 18 18 17 15 14 14 14 14 12 11 12 10 9 9 8 6 6 6 7 6 5 6 7 7 6 6 7 9 10 9 6 5 3 3 4 5 6 7 7 8 8 8 10 11 12 14 12 10 11 12 13 14 15 16 17 18 19 19 19 20 20 20 21 22 24 25 26 27 28 29 29 29 30 30 31 31 32 32
25 23 22 21 21 21 20 18 19 19 17 17 16 16 16 16 15 14 13 11 10 9 9 8 8 8 7 7 7 8 7 6 4 3 4 8 7 5 5 5 2 1 3 4 5 5 6 7 7 8 13 14 13 11 10 11 12 13 15 16 17 17 18 19 20 21 21 22 22 24 25 26 28 29 30 31 32 33 33 34 34 34 34 35 35
28 26 24 23 22 22 22 20 20 21 20 19 19 18 18 18 17 17 16 14 12 10 10 10 9 10 9 9 8 7 7 8 7 4 2 2 4 4 4 3 4 3 1 2 3 3 5 7 7 6 10 15 13 10 9 10 11 12 14 15 16 17 18 19 21 22 23 24 25 26 27 28 29 30 31 32 33 35 35 36 37 37 38 38 38
31 29 28 26 25 24 24 23 22 22 22 21 21 20 19 18 17 17 17 16 14 12 11 11 10 10 9 9 9 9 7 7 8 7 5 5 5 4 4 3 4 4 4 3 3 4 7 9 5 4 4 10 11 11 12 12 13 14 15 16 17 18 19 20 21 23 24 25 27 28 29 30 31 32 32 33 34 35 35 36 37 37 38 39 39
31 30 30 29 28 27 27 26 25 23 23 23 23 21 20 20 18 17 16 15 14 14 13 13 11 11 10 9 9 9 8 7 7 8 7 7 8 8 6 5 6 7 8 6 3 5 7 8 8 6 6 7 9 11 14 15 15 16 17 18 19 20 21 22 23 24 25 26 28 29 30 31 32 32 33 33 33 33 33 34 34 35 36 36 37
31 30 30 30 30 29 28 28 28 26 24 24 25 23 22 22 20 19 17 15 15 16 15 14 13 12 12 12 11 10 9 9 10 11 10 7 7 7 5 6 8 8 9 8 6 10 14 14 14 13 10 10 11 11 12 14 15 16 19 20 21 22 23 24 25 26 26 27 29 30 31 31 31 32 31 31 31 31 32 33 33 34 34 34 35
34 31 30 31 31 31 30 30 30 28 26 26 26 25 24 23 23 21 19 18 17 17 17 17 16 14 13 13 13 12 11 12 12 13 12 10 9 9 9 9 10 10 11 11 11 14 18 17 15 15 13 14 14 13 13 15 16 17 19 20 21 23 24 26 26 26 26 27 28 29 30 30 30 29 29 29 29 30 31 31 32 33 33 33 33
36 34 32 32 32 32 32 31 31 29 28 28 27 27 26 25 25 24 22 21 20 19 19 19 17 16 15 14 14 14 13 13 14 14 14 13 12 13 14 13 14 13 13 14 14 15 18 19 18 17 17 16 16 16 16 17 18 18 19 21 21 23 24 25 26 26 26 27 28 28 28 27 27 27 27 28 28 28 29 30 30 30 31 32 33
37 37 36 34 34 34 34 33 32 31 30 29 28 28 28 28 27 26 25 24 22 21 21 21 19 18 18 17 16 15 15 15 15 15 14 14 14 14 16 16 16 16 15 16 16 16 18 20 19 19 19 19 19 19 18 19 20 20 20 20 20 21 23 24 25 26 25 25 25 25 24 24 25 26 26 27 28 29 29 29 28 27 28 29 31
36 38 38 36 35 35 36 35 34 33 31 30 30 30 30 30 29 28 27 26 25 24 23 23 21 19 20 20 19 18 17 17 17 17 16 16 16 16 16 16 15 16 16 17 18 18 19 20 20 20 20 20 21 21 21 21 21 20 19 19 19 20 21 21 22 22 21 20 20 21 22 23 25 26 27 28 28 27 27 26 26 27 27 27 27
36 37 38 38 36 36 37 37 36 35 34 33 33 32 32 31 30 29 28 27 27 26 25 24 22 21 20 21 22 21 20 19 19 18 18 18 18 17 17 17 16 15 15 16 18 19 19 20 21 22 22 22 23 23 22 21 22 21 20 20 19 20 21 20 19 18 18 18 20 21 22 24 26 27 27 26 25 25 26 27 27 25 24 23 24
36 36 38 39 38 37 37 37 37 36 36 35 35 35 34 33 31 30 29 28 27 26 26 25 24 23 22 21 22 22 21 21 21 20 20 20 20 19 19 19 18 17 17 17 18 19 20 21 23 24 24 24 24 25 23 20 20 21 21 21 21 21 21 22 21 18 17 18 20 21 23 25 26 25 24 23 24 26 27 24 22 21 21 23 24
37 36 37 39 39 38 38 37 37 36 36 37 36 36 35 34 32 31 30 29 28 27 26 26 26 25 24 23 22 22 22 23 23 22 22 22 21 21 20 20 19 19 20 20 19 19 20 21 22 24 25 24 24 24 22 18 17 20 21 22 23 22 22 22 21 18 16 17 20 23 25 25 24 23 23 24 25 24 22 20 21 22 23 23 23
38 37 37 38 39 39 39 38 37 36 36 37 37 36 36 35 33 32 31 30 29 29 27 27 26 26 26 25 25 24 24 25 24 24 24 23 22 22 22 21 21 21 21 21 21 20 20 21 22 23 23 23 22 21 20 17 17 20 20 21 23 23 19 16 16 16 16 19 22 25 25 23 24 26 26 25 23 20 19 20 20 20 21 22 23
39 37 37 38 38 38 39 38 37 36 36 37 37 37 37 36 34 33 32 31 30 30 29 28 27 26 26 26 26 26 26 26 26 25 25 25 25 24 24 23 23 23 23 22 21 21 21 21 22 22 22 22 22 21 20 18 18 20 20 18 18 16 13 13 15 17 19 21 22 23 24 26 28 28 26 23 21 21 20 19 18 19 22 24 24
39 38 37 37 38 38 38 38 38 37 36 36 37 37 37 37 36 34 32 32 31 30 30 29 29 28 28 27 27 26 26 26 26 26 25 25 26 26 26 25 24 24 24 24 23 23 22 21 23 22 20 22 24 22 20 19 19 19 15 11 11 12 14 17 19 21 22 19 18 22 27 27 27 25 23 21 22 21 19 18 19 23 25 24 24
40 39 37 37 38 39 38 38 39 38 37 37 36 37 37 37 36 35 33 32 32 32 30 30 30 30 29 29 28 27 26 26 27 27 26 26 26 27 26 26 25 25 24 25 25 24 23 22 23 22 20 23 25 23 20 18 16 13 11 10 11 14 16 16 17 19 20 18 19 26 28 23 21 21 21 20 21 20 19 22 25 27 25 23 26
40 39 38 36 37 39 38 38 38 38 38 38 38 38 38 38 37 36 34 32 32 32 32 31 31 30 30 29 28 28 27 27 28 28 28 28 28 28 28 27 26 26 26 26 26 26 24 23 23 23 23 23 24 23 19 16 14 14 15 16 16 17 16 15 15 18 21 21 23 26 26 20 18 18 18 17 18 19 23 28 28 25 22 25 28
41 40 39 37 35 37 38 38 37 38 38 38 38 38 38 39 39 37 36 34 32 32 33 33 33 32 31 30 29 29 28 27 27 27 27 28 28 28 28 29 29 28 29 29 29 28 28 26 25 26 27 26 25 27 25 22 20 21 21 21 20 19 18 17 17 20 22 23 23 23 23 19 15 14 14 15 17 22 27 28 24 20 22 26 27
41 41 40 38 35 35 38 38 37 37 37 38 38 38 38 38 39 39 38 36 34 33 33 34 34 33 32 31 31 30 30 29 27 27 27 27 28 28 29 30 31 31 31 31 31 31 31 31 30 31 32 31 31 33 32 28 27 26 25 24 23 20 17 17 18 20 22 21 19 17 17 15 12 11 14 17 21 26 27 22 18 19 24 27 26
40 41 40 40 38 35 36 38 37 36 36 37 37 37 37 37 38 39 39 37 34 33 33 33 33 33 33 33 33 32 32 31 30 29 28 27 28 29 30 31 32 32 32 32 32 31 31 31 32 33 33 31 30 29 27 25 25 24 23 22 19 16 16 16 19 22 21 18 13 10 10 10 11 12 17 21 24 24 21 16 16 22 26 25 26
37 39 39 39 39 37 35 36 38 37 35 36 37 37 37 36 37 38 39 37 34 33 33 33 32 32 32 32 33 33 33 33 32 31 30 29 27 28 29 31 32 32 33 32 31 29 28 28 27 27 25 23 22 20 19 18 19 19 19 18 17 18 18 17 19 20 18 14 10 9 9 10 11 15 18 21 23 20 15 13 19 25 25 24 27
34 36 38 37 38 38 36 34 36 37 36 35 36 36 36 36 36 37 39 38 36 35 35 34 31 30 31 32 33 33 34 33 32 31 31 30 30 29 29 29 29 30 31 31 29 27 26 24 22 21 20 18 18 18 18 18 19 19 19 18 19 21 19 15 15 16 15 13 11 10 10 10 12 17 18 18 19 16 11 15 24 25 23 25 28
33 34 36 36 36 37 37 35 34 34 34 35 36 35 35 35 36 37 39 38 38 38 37 35 31 28 27 28 30 32 34 34 33 32 30 30 31 31 31 29 28 28 30 30 27 25 23 21 20 20 20 20 20 21 21 21 21 21 21 21 21 21 18 15 15 16 16 13 11 9 9 11 13 17 18 17 13 8 9 19 26 24 23 26 29
33 32 34 34 34 35 36 37 36 33 32 33 35 36 35 35 36 38 39 39 38 38 37 36 35 33 31 29 27 27 29 30 31 32 31 30 30 31 32 30 29 30 32 31 27 24 22 21 21 22 23 23 23 22 22 22 23 24 23 22 22 22 20 19 18 15 11 8 8 8 9 11 12 14 16 14 8 4 11 22 25 22 24 27 30
Wind_Direction
151 152 155 165 169 160 157 155 156 168 161 148 159 161 163 166 163 158 149 154 159 156 156 140 138 153 165 167 165 169 167 154 154 152 149 149 148 149 149 148 146 145 144 142 141 139 141 142 142 144 144 146 146 147 150 152 153 154 154 158 157 148 136 124 114 102 92 77 58 37 18 14 8 6 6 8 10 11 8 4 6 6 3 9 21
156 157 159 163 161 157 158 153 153 161 157 154 162 162 162 160 157 160 159 155 146 149 148 137 144 150 159 170 168 168 169 157 154 154 153 155 154 155 155 155 152 151 150 148 147 145 145 146 147 149 151 153 154 156 159 161 164 166 169 173 169 166 160 139 121 98 65 24 26 17 6 3 2 360 358 2 6 6 4 360 360 359 8 26 38
163 158 155 155 150 150 149 144 147 152 152 156 157 153 154 158 159 159 157 149 141 146 144 138 146 147 154 170 173 170 169 161 155 153 155 160 163 162 161 162 161 158 158 157 156 156 154 153 152 154 156 159 162 165 167 170 174 177 182 183 181 184 184 170 156 331 313 322 344 352 349 349 351 353 353 357 357 356 1 357 354 3 22 39 39
163 159 152 149 147 145 141 141 147 144 144 149 149 149 154 157 158 159 158 153 146 146 152 147 142 145 155 164 168 171 169 165 162 158 158 162 169 170 168 169 169 166 166 166 165 165 166 163 161 162 162 165 168 172 175 180 182 185 192 193 194 204 219 233 263 278 283 302 315 326 332 338 343 346 348 350 349 349 355 350 352 10 30 36 35
157 157 152 148 149 147 146 150 148 142 145 147 144 148 151 146 146 161 168 166 157 148 161 163 148 150 156 156 163 173 176 173 170 169 166 167 173 173 172 175 176 177 177 178 177 176 178 176 176 177 177 179 182 186 187 190 193 195 200 204 210 221 241 254 265 275 282 295 302 312 320 327 332 336 337 336 341 342 341 343 359 23 29 29 33
154 156 155 154 158 159 161 160 152 148 150 145 141 146 147 144 142 152 164 165 164 161 166 171 170 170 160 154 165 177 182 182 182 187 180 170 173 173 174 177 179 183 184 186 188 188 189 189 189 191 194 194 196 201 203 204 206 210 214 219 228 238 249 256 261 271 279 283 287 298 303 313 317 319 322 322 327 327 326 346 18 31 23 29 34
157 160 164 164 163 163 164 163 156 148 147 143 142 146 143 146 147 142 149 157 162 165 162 165 173 175 166 154 159 170 174 181 190 197 192 174 172 172 176 180 182 186 188 190 193 196 198 200 201 203 205 208 208 212 216 220 222 225 232 234 240 245 249 257 261 264 269 272 275 283 288 293 299 302 304 310 316 312 310 351 42 34 16 28 38
157 158 164 165 163 162 162 163 159 148 148 148 143 142 133 132 140 139 139 151 163 158 159 167 153 154 162 155 145 159 167 175 188 197 199 184 177 176 176 182 185 189 192 193 195 199 202 204 208 210 211 216 218 220 223 227 231 231 235 239 243 247 247 249 253 256 260 261 264 271 277 279 283 290 293 300 307 295 269 204 110 60 12 35 52
151 153 161 162 163 166 162 157 153 153 158 158 150 144 134 127 128 131 122 126 153 154 155 163 143 141 156 159 151 161 169 173 181 190 194 189 192 189 183 183 183 190 195 196 198 201 205 208 211 214 215 220 222 224 227 229 233 235 235 238 241 245 246 244 243 249 253 256 259 263 269 270 272 278 283 292 293 270 225 188 173 190 221 193 180
147 154 160 160 166 166 160 153 150 153 154 155 154 147 137 129 124 122 108 112 139 145 143 150 152 153 156 154 152 163 172 172 171 176 181 188 197 194 192 190 181 186 191 190 194 197 203 207 211 216 217 221 224 226 230 231 234 239 237 235 239 242 243 241 238 244 250 251 254 256 257 258 264 270 275 282 277 256 233 217 204 219 226 212 213
148 155 155 158 168 164 157 159 163 153 149 153 149 144 140 131 121 113 101 107 123 127 132 127 164 166 162 156 155 162 163 161 167 170 171 183 193 192 192 193 188 194 198 194 191 193 199 200 204 214 218 221 225 227 230 232 233 239 238 234 238 242 240 237 238 244 248 248 250 251 249 249 258 268 270 269 262 255 245 237 233 234 234 228 225
157 160 155 158 167 164 159 165 171 156 157 164 152 146 144 137 130 122 111 108 112 114 128 121 118 146 154 154 161 171 165 164 178 185 179 183 189 189 189 188 189 194 200 202 194 189 194 199 198 200 210 217 223 227 228 231 233 236 238 237 240 241 239 237 239 244 245 248 249 250 249 247 255 264 267 265 258 254 247 242 243 241 240 238 236
167 166 159 164 169 168 167 171 176 167 164 168 160 154 144 147 152 143 139 130 128 130 137 139 128 133 148 158 168 176 180 187 195 198 191 189 189 189 188 187 191 194 195 201 202 197 192 195 195 190 197 210 221 227 226 230 233 236 239 241 244 242 239 238 239 243 244 247 248 251 253 251 255 260 262 262 256 249 244 244 245 245 246 244 246
174 172 166 171 171 172 176 179 181 172 165 165 163 159 150 154 157 152 154 145 143 158 170 165 153 165 170 163 174 187 195 199 203 204 194 193 193 190 190 190 196 198 196 199 207 209 198 193 194 193 198 202 214 225 226 234 235 236 237 241 247 244 239 238 239 242 243 247 248 250 254 254 259 259 258 257 253 247 243 246 246 246 251 249 250
176 175 173 174 172 173 178 182 186 176 168 167 167 166 161 160 152 154 161 150 139 149 176 170 155 188 178 163 187 189 206 217 219 215 200 197 194 188 193 194 196 201 200 201 209 214 207 201 200 201 206 197 197 219 228 241 241 237 241 245 250 247 243 240 239 240 240 245 248 248 251 257 263 261 258 257 254 251 248 250 250 248 252 253 254
177 177 179 182 177 173 175 179 184 179 172 174 177 174 168 167 159 158 158 150 146 136 155 154 75 169 161 160 186 145 236 232 226 225 210 203 195 187 196 199 198 204 206 203 209 218 215 209 204 203 213 208 201 220 230 240 246 244 250 256 254 252 248 243 240 240 241 244 248 252 255 259 261 260 260 262 261 258 253 253 253 251 252 253 256
180 180 182 185 182 178 179 179 182 181 181 187 187 180 167 162 154 153 141 126 135 143 139 142 152 171 149 136 138 148 250 238 227 225 204 202 200 193 201 203 199 202 206 205 210 221 217 207 206 208 220 220 214 225 231 237 244 245 256 264 262 259 256 248 242 241 243 246 250 255 260 261 258 257 262 266 264 260 256 256 256 254 255 254 256
182 182 181 183 181 180 180 182 186 182 185 192 188 187 181 160 142 145 140 122 143 167 153 162 189 222 202 186 140 175 287 342 27 230 189 193 197 200 208 208 204 204 205 203 206 214 210 205 215 224 226 222 220 228 235 241 245 249 263 272 271 270 268 261 252 248 249 251 253 254 258 262 258 256 260 261 261 258 256 257 257 257 258 257 257
184 183 184 187 182 182 182 183 191 187 188 192 189 195 189 171 162 152 146 153 185 172 145 170 197 209 198 231 280 275 319 358 137 115 164 186 194 201 208 209 211 215 206 198 201 207 210 214 226 232 228 220 218 226 239 250 248 253 265 275 283 283 278 273 264 258 258 257 257 256 255 258 259 258 258 258 257 257 258 258 259 260 259 259 259
189 188 187 192 189 188 187 185 192 194 193 197 203 206 186 180 189 182 175 178 183 171 141 162 189 196 209 259 279 257 266 277 285 301 149 149 219 207 209 209 214 221 212 203 202 204 210 220 225 228 227 221 220 225 235 246 252 257 262 271 286 290 283 281 273 264 262 261 260 258 256 258 259 259 257 257 257 257 258 260 260 260 260 261 261
192 191 187 193 196 194 192 189 194 199 200 201 206 204 191 192 199 198 198 186 182 187 170 159 172 193 223 253 258 222 263 265 298 318 131 121 310 273 258 217 208 217 221 218 214 212 217 222 222 227 229 226 227 231 233 240 255 262 264 270 280 285 286 289 286 274 267 264 262 259 258 259 260 260 259 258 258 259 259 260 261 261 261 261 262
192 194 190 193 197 199 198 194 192 195 200 202 199 197 196 196 201 204 204 198 193 186 175 175 184 187 196 230 220 201 280 293 321 353 44 73 116 347 332 322 196 205 211 210 205 207 215 217 220 229 232 233 236 239 238 239 253 264 267 271 277 281 285 288 289 282 274 269 265 263 262 262 262 262 262 262 261 261 261 261 262 262 263 263 263
190 197 197 194 198 202 204 200 194 192 198 203 205 212 211 200 202 208 200 203 204 190 189 198 192 180 183 216 212 194 213 259 312 331 38 80 86 339 317 342 359 191 175 152 172 190 201 207 217 232 238 240 240 243 245 242 252 268 272 274 281 284 284 286 288 284 280 275 270 268 267 266 267 266 266 266 265 265 264 264 264 264 265 265 265
189 197 200 197 201 203 202 203 200 196 200 205 206 215 218 209 212 212 197 203 209 199 201 211 213 196 196 215 207 204 224 226 248 261 247 197 191 257 289 338 356 248 183 182 188 193 205 214 227 240 244 244 243 245 247 245 253 269 275 278 285 287 285 287 288 286 283 280 276 274 272 271 271 270 270 270 269 269 269 268 267 267 267 267 267
189 195 200 200 203 203 201 203 205 202 202 206 203 197 204 214 217 211 201 206 214 209 203 207 217 214 211 222 218 225 240 236 226 233 241 254 249 255 285 314 317 305 277 234 220 209 223 236 244 246 243 241 243 246 246 248 258 266 274 282 285 285 286 286 287 287 286 284 282 280 278 277 275 274 274 273 273 272 272 272 271 271 270 270 270
193 196 199 202 206 207 205 204 206 209 207 206 202 194 199 213 209 202 205 212 213 211 207 202 212 222 224 234 242 247 252 254 242 225 220 236 240 237 262 296 301 316 334 310 284 246 230 245 245 234 232 233 235 244 250 254 263 270 275 281 283 283 285 285 284 286 286 286 285 284 283 281 280 278 277 277 277 276 276 276 275 275 274 274 274
197 200 200 202 206 210 213 209 206 212 213 208 204 200 204 209 198 192 201 211 208 210 217 213 214 225 231 239 253 257 260 267 257 238 231 234 239 244 237 238 302 323 336 322 303 271 257 279 269 231 221 225 229 240 256 262 265 270 274 277 280 282 283 283 284 285 287 288 287 286 285 283 282 282 281 281 281 281 281 281 280 280 279 278 278
198 201 204 205 206 208 214 214 207 210 214 211 210 208 208 211 207 200 201 202 202 209 217 218 220 223 232 241 249 253 254 259 278 297 253 222 208 203 201 182 170 299 327 319 308 285 270 299 307 254 231 228 232 243 258 266 267 269 272 275 279 283 284 284 285 286 287 288 288 288 287 286 286 287 287 287 287 287 286 286 285 284 283 282 281
202 202 204 207 209 209 211 214 212 211 213 215 216 215 213 215 215 212 211 207 204 211 215 216 218 217 227 239 244 247 248 247 257 285 309 226 180 163 179 180 171 175 180 295 293 287 273 288 321 309 247 231 236 254 263 271 277 275 275 279 282 287 290 289 288 288 289 290 291 292 293 293 293 293 293 293 293 293 292 291 290 289 288 286 285
209 207 206 206 210 211 211 212 213 213 215 216 218 219 216 217 219 219 219 215 209 213 219 218 217 217 225 238 241 243 243 240 247 256 270 276 270 270 264 240 228 218 202 211 268 279 282 288 313 355 286 241 245 267 276 284 291 285 281 284 286 289 293 293 293 292 292 294 296 297 298 299 299 298 298 298 298 298 297 296 295 294 293 291 289
212 211 209 208 209 211 212 212 213 214 216 217 218 219 215 215 219 219 220 219 214 214 220 222 221 220 223 230 238 242 237 231 237 245 255 262 263 271 270 238 241 252 232 214 233 263 273 290 296 304 308 288 280 284 284 286 292 290 285 284 285 288 290 291 292 293 293 295 297 299 299 300 300 300 301 301 301 301 300 300 299 298 298 296 295
211 212 211 210 208 210 211 211 212 213 215 215 217 218 216 215 216 217 217 219 220 218 220 222 222 222 222 223 230 236 232 229 232 237 246 253 250 256 258 235 236 249 242 224 226 258 273 288 294 295 301 304 303 299 291 289 292 291 288 286 287 289 289 290 292 293 293 295 298 299 300 300 302 303 304 304 305 305 305 305 304 302 301 299 298
208 209 210 210 209 209 210 210 211 213 215 214 215 217 217 215 216 216 215 217 223 223 222 222 222 221 223 224 226 230 232 236 239 241 242 243 246 253 251 238 236 241 241 236 237 260 278 287 293 297 303 306 306 305 300 297 297 295 292 292 292 291 291 293 294 295 295 297 299 300 301 303 304 305 306 307 308 309 311 311 310 309 307 304 302
208 207 209 210 210 208 208 209 211 213 215 215 215 216 217 217 217 216 214 215 221 225 225 225 222 218 221 228 230 229 231 237 242 243 243 240 242 252 251 242 240 241 239 241 243 250 268 282 290 294 298 301 299 300 301 299 300 300 296 294 294 294 294 294 295 297 298 298 299 300 301 301 302 304 306 308 311 313 314 315 316 316 315 314 312
209 208 209 210 211 208 207 208 209 212 215 216 215 216 218 219 218 218 216 214 218 224 226 227 226 220 219 225 230 229 229 235 240 241 242 241 241 249 253 248 244 245 244 244 245 246 259 275 284 287 291 293 292 296 300 300 301 301 298 296 295 293 294 295 295 296 297 297 297 299 301 304 306 308 310 312 314 315 316 316 316 316 316 317 317
209 210 210 210 211 208 206 207 208 210 213 216 216 217 219 220 220 220 218 216 216 222 226 227 228 226 222 222 225 228 230 233 237 239 241 241 241 244 252 254 250 251 250 245 246 250 256 267 276 283 287 291 292 295 299 301 303 303 299 297 294 292 294 295 294 294 296 297 298 300 305 309 310 311 312 315 317 318 320 321 320 318 317 317 317
208 209 209 209 209 208 206 207 208 209 212 215 216 217 218 220 221 221 221 219 218 220 224 226 228 229 228 227 227 228 231 233 234 237 239 240 242 243 247 253 256 258 257 251 249 251 254 261 272 280 285 287 290 293 297 299 302 302 299 295 292 293 294 295 294 293 296 300 303 305 308 309 310 313 316 319 320 323 326 326 325 323 320 318 316
208 208 209 209 209 208 208 207 208 209 211 213 216 217 217 218 220 221 222 222 221 221 223 226 227 229 231 232 233 232 232 234 235 237 238 239 241 243 245 249 252 255 258 257 256 256 257 262 270 277 281 283 285 289 294 297 298 298 297 295 294 292 291 292 294 295 299 304 307 309 310 312 315 317 317 317 319 325 329 330 329 327 324 322 321
207 207 208 208 209 209 209 209 210 211 211 212 215 216 216 216 218 220 221 221 221 221 224 227 228 230 231 233 235 236 235 236 238 238 240 240 240 243 245 246 248 250 253 256 259 260 261 264 269 273 277 281 283 286 291 296 294 291 290 287 287 290 292 292 293 298 304 308 311 312 313 315 315 313 312 316 324 332 337 336 334 333 332 333 336
207 207 208 208 208 209 210 211 211 211 212 213 214 216 215 215 216 218 220 221 221 221 223 227 229 230 232 233 234 235 237 239 241 241 241 242 242 243 244 246 247 249 251 254 256 258 260 263 267 271 276 280 280 282 287 290 288 288 290 285 282 287 294 295 297 305 312 315 316 314 313 313 312 312 317 324 335 345 344 343 345 345 343 346 350
207 208 208 208 208 208 210 211 212 212 212 213 214 215 215 215 215 217 219 220 221 222 223 225 228 230 232 233 235 237 238 239 242 243 244 244 244 244 244 245 246 247 250 253 254 256 256 258 262 267 271 274 276 278 282 284 284 288 294 291 285 289 301 306 308 313 317 319 314 308 308 312 314 319 325 332 343 349 347 351 359 353 346 346 348
207 207 208 207 207 207 208 210 211 211 213 214 215 216 217 217 215 216 218 219 220 222 223 223 225 227 230 232 235 237 239 240 241 242 244 244 243 243 244 245 246 246 248 250 251 253 253 253 258 262 265 269 273 275 276 281 286 288 289 290 293 304 315 315 313 314 315 313 306 304 310 317 322 325 330 337 344 348 352 357 354 345 342 343 345
206 206 207 206 206 207 207 209 210 211 213 215 216 217 218 219 217 215 217 220 220 221 222 224 225 225 227 230 233 235 237 239 241 242 243 243 243 243 244 244 244 245 246 247 250 250 249 251 255 259 259 264 272 275 276 281 283 279 279 290 302 311 317 316 311 309 310 309 310 310 313 323 331 328 329 338 344 347 350 347 342 340 343 346 348
205 205 207 207 205 205 206 208 210 211 214 216 217 218 219 220 220 219 218 220 222 222 222 224 226 227 227 227 230 233 235 237 240 243 245 245 245 245 246 245 244 245 246 248 251 251 250 250 254 257 258 262 270 274 274 274 273 274 281 288 295 303 306 302 294 296 304 312 315 311 311 325 334 325 328 340 342 339 337 336 339 344 346 348 351
203 204 206 207 206 205 205 207 209 211 214 216 217 219 221 222 222 222 220 221 222 223 224 225 226 228 228 228 228 231 235 237 240 244 246 248 248 247 247 247 246 246 246 248 252 254 255 255 256 260 263 264 268 272 273 272 272 277 282 285 291 298 295 287 283 289 301 313 316 308 307 322 335 330 333 340 333 327 329 335 343 348 346 348 352
202 203 205 207 207 206 205 206 208 210 214 216 217 219 222 224 224 223 222 222 223 225 227 228 228 228 230 230 230 231 234 236 239 243 245 247 248 247 247 247 247 247 247 248 250 253 256 258 259 263 268 270 271 275 280 278 274 275 278 283 291 296 289 283 283 289 300 313 316 305 300 317 338 335 330 332 328 326 331 342 351 347 344 349 352
202 203 203 205 207 207 206 206 207 209 213 216 218 219 222 225 226 225 223 223 224 226 230 231 231 231 231 233 234 236 237 237 238 241 244 247 249 249 248 248 249 250 250 250 252 254 256 259 262 266 271 274 275 279 283 282 278 278 280 283 286 282 279 282 287 292 303 313 315 299 291 311 330 328 327 329 328 331 341 350 348 342 344 351 353
204 204 204 204 206 207 206 205 206 209 212 215 217 219 222 225 226 225 224 223 224 227 231 233 234 234 235 236 238 240 241 242 242 242 244 247 251 252 251 251 252 253 254 255 256 257 260 263 267 269 271 273 274 276 277 277 276 278 278 277 272 268 274 285 290 293 302 307 298 291 298 313 326 331 332 331 330 339 355 354 343 345 351 355 353
204 204 204 205 206 207 207 206 206 208 210 214 217 218 221 223 224 224 222 222 223 227 230 233 234 236 239 240 241 242 243 244 245 244 243 245 248 252 253 254 254 255 258 260 260 260 263 266 269 270 269 270 270 270 269 269 269 271 269 264 264 269 276 282 284 288 295 294 287 291 306 318 328 335 337 335 338 349 360 349 348 356 1 357 351
205 205 204 205 206 208 209 209 208 208 209 212 215 218 220 221 221 222 221 221 223 227 230 232 232 233 235 237 239 241 243 245 246 245 243 241 242 246 248 251 253 254 258 261 262 262 264 265 266 267 268 271 269 266 265 265 265 265 262 260 267 272 269 267 272 280 288 288 280 288 314 323 328 338 344 343 347 357 349 346 355 4 3 353 347
207 206 204 205 206 207 210 212 212 212 211 212 215 217 219 220 220 220 220 219 221 226 230 232 233 232 232 233 234 235 240 245 246 244 242 239 238 241 244 245 247 251 256 259 260 260 261 260 263 268 271 272 270 266 265 264 264 266 264 265 269 267 261 262 267 272 284 286 274 291 321 327 332 350 357 354 353 338 334 347 359 5 359 350 346